Flag for U.S.A. Weather past 2 weeks in Anaheim, California, U.S.A.

Now
70 °F

Overcast.


Feels Like: 74 °F
Forecast: 63 / 76 °F
Wind: 5 mph from Southwest

Location: Fullerton Municipal Airport

Current Time: Jul 6, 2015 at 12:01:08 PM

Latest Report: Jul 6, 2015 at 10:53 AM


Visibility: 10 mi

Pressure: 30.04 "Hg

Humidity: 71%

Dew point: 60 °F

Location of AnaheimLocation

Historic Weather in Anaheim — Graph

°F

Anaheim temperature yesterday

Maximum temperature yesterday: 77 °F (at 2:53 PM)
Minimum temperature yesterday: 66 °F (at 5:53 AM)
Average temperature yesterday: 70 °F

Past Weeks' High & Low Weather Summary

 TemperatureHumidityPressure
High94 °F (Jun 28, 2:53 PM)90% (Jun 22, 5:53 AM)30.05 "Hg (Jun 22, 5:53 AM)
Low64 °F (Jun 27, 5:53 AM)30% (Jun 30, 7:53 PM)29.77 "Hg (Jun 30, 7:53 PM)
Average74 °F65%29.91 "Hg
* Reported Jun 21 10:53 AM — Jul 6 10:53 AM, Anaheim, Weather by CustomWeather, © 2015

Note: Actual official high and low records may vary slightly from our data, if they occured in-between our weather recording intervals... More about our weather records

Advertising

Anaheim weather history for previous 24 hours

 ConditionsComfort  
Time TempWeatherWind HumidityBarometerVisibility
10:53 AM
Mon, Jul 6
70 °FOvercast.5 mph71%30.04 "Hg10 mi
9:53 AM68 °FOvercast.No wind76%30.05 "Hg10 mi
8:53 AM68 °FOvercast.3 mph76%30.04 "Hg10 mi
7:53 AM68 °FOvercast.3 mph76%30.03 "Hg10 mi
6:53 AM68 °FOvercast.No wind76%30.02 "Hg10 mi
5:53 AM68 °FOvercast.3 mph76%30.01 "Hg10 mi
4:53 AM68 °FOvercast.No wind76%29.99 "Hg10 mi
3:53 AM68 °FOvercast.No wind76%29.99 "Hg10 mi
2:53 AM68 °FOvercast.No wind76%29.99 "Hg10 mi
1:53 AM67 °FOvercast.3 mph79%30.01 "Hg10 mi
12:53 AM67 °FOvercast.5 mph79%30.00 "Hg10 mi
11:53 PM
Sun, Jul 5
67 °FOvercast.No wind79%30.00 "Hg10 mi
10:53 PM67 °FOvercast.5 mph79%30.01 "Hg10 mi
9:53 PM67 °FOvercast.8 mph79%30.00 "Hg10 mi
8:53 PM68 °FOvercast.7 mph76%29.97 "Hg10 mi
7:53 PM69 °FPassing clouds.8 mph73%29.95 "Hg10 mi
6:53 PM71 °FSunny.8 mph71%29.94 "Hg10 mi
5:53 PM74 °FSunny.8 mph62%29.93 "Hg10 mi
4:53 PM76 °FSunny.7 mph58%29.93 "Hg10 mi
3:53 PM76 °FSunny.10 mph58%29.93 "Hg10 mi
2:53 PM77 °FSunny.7 mph56%29.94 "Hg10 mi
1:53 PM76 °FPassing clouds.5 mph58%29.96 "Hg10 mi
12:53 PM74 °FOvercast.7 mph62%29.98 "Hg10 mi
Weather by CustomWeather, © 2015

See weather overviewHow to use our weather pages